Location: Aragoneses
(41.0275°N, 4.3847°W)
Time: 02:06:49
(UTC+00:00)

Meteor 2-10 - Pass Details

Date: 11 December 2025
Orbit: 737 x 865 km, 81.2° (Epoch: 14 January)

Event Time Altitude Azimuth Distance (km) Brightness Sun altitude
Rises 18:50:22 0° 348° (NNW) 3,304 7.3 -22.1°
Reaches altitude 10° 18:52:43 10° 347° (NNW) 2,390 6.6 -22.5°
Maximum altitude 18:58:07 76° 263° (W) 852 4.2 -23.5°
Drops below altitude 10° 19:03:40 10° 178° (S) 2,453 6.7 -24.5°
Sets 19:06:07 0° 177° (S) 3,398 7.4 -25.0°
